SAST,Max TemperatureF,Mean TemperatureF,Min TemperatureF,Max Dew PointF,MeanDew PointF,Min DewpointF,Max Humidity, Mean Humidity, Min Humidity, Max Sea Level PressureIn, Mean Sea Level PressureIn, Min Sea Level PressureIn, Max VisibilityMiles, Mean VisibilityMiles, Min VisibilityMiles, Max Wind SpeedMPH, Mean Wind SpeedMPH, Max Gust SpeedMPH,PrecipitationIn, CloudCover, Events, WindDirDegrees
2012-8-1,55,49,42,45,42,37,93,78,58,30.38,30.31,30.18,12,7,5,20,11,20,0.08,5,Rain,285
2012-8-2,61,49,37,44,38,32,87,64,31,30.30,30.14,30.01,19,13,6,9,5,,0.00,1,,71
2012-8-3,64,54,44,54,45,37,94,72,41,30.11,30.04,30.01,19,9,6,14,6,,0.00,4,,272
2012-8-4,61,54,46,48,45,43,88,73,45,30.13,30.09,30.06,12,7,6,10,5,,0.00,3,,302
2012-8-5,62,52,42,46,43,40,87,72,45,30.10,30.04,30.01,12,8,6,17,6,,0.00,3,,301
2012-8-6,49,46,44,45,40,36,87,75,65,30.13,30.05,29.98,12,7,6,31,16,44,0.12,5,Rain,283
2012-8-7,57,52,46,54,49,39,94,89,76,30.36,30.23,30.09,12,6,2,21,12,30,0.79,6,Rain,161
2012-8-8,59,52,46,51,48,43,100,85,51,30.37,30.28,30.18,12,6,1,13,5,,0.00,5,Rain,286
2012-8-9,61,50,40,45,42,37,87,71,42,30.15,30.03,29.95,12,8,6,13,6,,0.00,2,,319
2012-8-10,60,50,40,50,43,36,93,76,54,29.95,29.84,29.71,19,15,12,10,5,,0.00,,,85
2012-8-11,62,52,43,45,35,25,82,46,18,29.83,29.61,29.50,19,9,6,32,13,37,0.08,3,Rain,298
2012-8-12,62,54,46,45,41,37,81,65,41,30.24,30.12,29.89,19,8,6,22,17,,0.00,4,Rain,293
2012-8-13,64,52,40,48,42,36,87,71,41,30.19,30.01,29.80,19,17,12,10,5,,0.00,,,45
2012-8-14,66,56,46,52,43,28,94,57,16,29.77,29.70,29.65,12,8,4,16,8,,0.00,1,,351
2012-8-15,66,56,47,43,40,37,71,52,28,29.99,29.80,29.71,12,8,6,23,10,31,0.00,3,,297
2012-8-16,62,52,42,45,38,33,87,60,23,30.39,30.17,30.05,12,8,6,29,14,,0.00,3,Rain,291
2012-8-17,57,48,38,39,36,32,81,63,37,30.43,30.30,30.12,19,10,6,10,6,,0.00,1,,27
2012-8-18,69,54,39,51,42,34,94,71,26,30.12,29.97,29.86,19,11,2,7,5,,0.00,,,338
2012-8-19,60,52,45,46,45,41,93,77,52,29.97,29.91,29.86,12,8,6,10,5,,0.00,4,,298
2012-8-20,60,52,44,46,42,37,87,68,43,30.19,30.09,29.95,19,8,6,16,10,,0.04,5,Rain,282
2012-8-21,61,50,40,43,39,34,93,69,26,30.20,30.15,30.09,12,8,6,14,4,,0.00,1,,314
2012-8-22,60,51,42,48,42,37,87,71,47,30.29,30.23,30.18,19,8,6,17,6,,0.00,5,,306
2012-8-23,64,52,40,46,41,37,93,67,37,30.24,30.10,30.01,12,12,12,8,4,,0.00,,,64
2012-8-24,63,52,42,53,46,37,88,75,60,30.09,29.96,29.80,12,9,6,9,5,,0.00,1,,14
2012-8-25,67,58,49,48,40,34,82,49,19,30.09,29.88,29.71,19,10,6,30,13,26,0.00,1,,289
2012-8-26,67,58,48,50,45,41,88,67,37,30.27,30.21,30.12,19,10,6,16,9,,0.00,2,,269
2012-8-27,63,55,47,52,48,42,94,76,51,30.33,30.26,30.21,19,8,3,9,5,,0.00,3,,183
2012-8-28,79,62,44,54,49,43,93,73,28,30.15,29.96,29.82,19,11,6,12,5,,0.00,6,,251
2012-8-29,60,56,51,54,51,48,94,80,60,30.09,30.01,29.95,12,7,5,9,5,,0.00,6,,265
2012-8-30,64,54,45,54,48,41,94,78,59,30.11,30.00,29.92,19,9,4,9,5,,0.00,2,,65
2012-8-31,73,59,45,48,44,39,87,60,23,29.92,29.74,29.62,19,9,6,25,10,37,0.01,3,Rain,286